�������l�o���
Date,Time,MP-1(��Sv/h),MP-2(��Sv/h),MP-3(��Sv/h),MP-4(��Sv/h),MP-5(��Sv/h),MP-6(��Sv/h),MP-7(��Sv/h),MP-8(��Sv/h),����,����(m/s),���J
2020/07/23,00:00,0.656,0.939,0.590,1.123,0.808,0.394,0.665,0.628,�쓌,0.9,��
2020/07/23,00:10,0.657,0.936,0.591,1.123,0.809,0.394,0.666,0.628,��쓌,2.3,��
2020/07/23,00:20,0.656,0.936,0.590,1.122,0.808,0.393,0.666,0.627,��쓌,3.4,��
2020/07/23,00:30,0.656,0.935,0.589,1.124,0.807,0.393,0.665,0.626,��쓌,2.0,��
2020/07/23,00:40,0.655,0.935,0.590,1.124,0.809,0.393,0.665,0.627,��쓌,2.5,��
2020/07/23,00:50,0.655,0.935,0.589,1.121,0.809,0.391,0.664,0.626,��쓌,1.7,��
2020/07/23,01:00,0.653,0.936,0.591,1.122,0.810,0.393,0.666,0.627,�쓌,1.7,��
2020/07/23,01:10,0.656,0.938,0.591,1.124,0.808,0.394,0.664,0.627,��쓌,0.9,��
2020/07/23,01:20,0.654,0.935,0.588,1.123,0.807,0.392,0.666,0.628,��,1.5,��
2020/07/23,01:30,0.655,0.933,0.589,1.122,0.809,0.393,0.666,0.627,�쐼,1.4,��
2020/07/23,01:40,0.654,0.934,0.589,1.124,0.807,0.395,0.667,0.628,���쐼,1.7,��
2020/07/23,01:50,0.655,0.934,0.589,1.122,0.808,0.391,0.668,0.628,��,0.9,��
2020/07/23,02:00,0.655,0.934,0.589,1.123,0.808,0.394,0.667,0.628,-,CALM,��
2020/07/23,02:10,0.656,0.933,0.590,1.123,0.808,0.392,0.665,0.628,�k��,0.8,��
2020/07/23,02:20,0.655,0.935,0.590,1.124,0.807,0.393,0.666,0.628,�k�k��,0.9,��
2020/07/23,02:30,0.656,0.933,0.592,1.123,0.808,0.395,0.667,0.628,�k�k��,0.8,��
2020/07/23,02:40,0.655,0.933,0.589,1.123,0.808,0.393,0.666,0.627,-,CALM,��
2020/07/23,02:50,0.657,0.937,0.590,1.122,0.808,0.393,0.667,0.628,-,CALM,��
2020/07/23,03:00,0.655,0.935,0.590,1.124,0.809,0.395,0.666,0.628,-,CALM,��
2020/07/23,03:10,0.656,0.934,0.591,1.123,0.807,0.392,0.668,0.627,�k��,1.5,��
2020/07/23,03:20,0.657,0.936,0.590,1.124,0.808,0.394,0.666,0.627,�k��,2.3,��
2020/07/23,03:30,0.658,0.935,0.589,1.124,0.810,0.395,0.665,0.629,�k�k��,1.5,��
2020/07/23,03:40,0.656,0.933,0.591,1.123,0.809,0.394,0.666,0.627,�k,1.7,��
2020/07/23,03:50,0.657,0.933,0.590,1.124,0.810,0.394,0.666,0.628,�k,2.0,��
2020/07/23,04:00,0.655,0.933,0.590,1.127,0.807,0.393,0.666,0.626,�k,3.0,��
2020/07/23,04:10,0.655,0.935,0.590,1.125,0.807,0.393,0.666,0.627,�k,2.6,��
2020/07/23,04:20,0.657,0.935,0.590,1.121,0.810,0.395,0.666,0.628,�k,1.5,��
2020/07/23,04:30,0.655,0.934,0.591,1.124,0.807,0.394,0.667,0.627,�k,1.9,��
2020/07/23,04:40,0.655,0.933,0.589,1.124,0.807,0.394,0.666,0.629,�k,2.3,��
2020/07/23,04:50,0.655,0.933,0.591,1.124,0.808,0.395,0.666,0.628,�k,2.8,��
2020/07/23,05:00,0.657,0.935,0.591,1.125,0.808,0.395,0.666,0.627,�k�k��,3.0,��
2020/07/23,05:10,0.655,0.936,0.589,1.123,0.810,0.394,0.667,0.628,�k�k��,3.5,��
2020/07/23,05:20,0.656,0.935,0.590,1.124,0.808,0.395,0.666,0.629,�k�k��,3.3,��
2020/07/23,05:30,0.655,0.935,0.589,1.125,0.808,0.393,0.668,0.627,�k�k��,2.0,��
2020/07/23,05:40,0.656,0.934,0.591,1.124,0.811,0.393,0.667,0.628,�k��,1.7,��
2020/07/23,05:50,0.655,0.934,0.590,1.124,0.806,0.393,0.667,0.627,���k��,1.9,��
2020/07/23,06:00,0.657,0.935,0.590,1.123,0.808,0.392,0.665,0.629,�k��,1.2,��
2020/07/23,06:10,0.656,0.935,0.591,1.125,0.809,0.394,0.666,0.629,�k�k��,1.5,��
2020/07/23,06:20,0.656,0.935,0.592,1.122,0.809,0.391,0.667,0.629,�k�k��,0.8,��
2020/07/23,06:30,0.655,0.935,0.591,1.125,0.809,0.393,0.667,0.627,�k,2.0,��
2020/07/23,06:40,0.656,0.936,0.588,1.126,0.810,0.392,0.665,0.628,�k,2.3,��
2020/07/23,06:50,0.656,0.934,0.590,1.124,0.809,0.393,0.668,0.627,�k�k��,1.7,��
2020/07/23,07:00,0.656,0.933,0.588,1.124,0.809,0.393,0.666,0.628,�k�k��,0.6,��
2020/07/23,07:10,0.654,0.933,0.588,1.122,0.808,0.392,0.667,0.627,-,CALM,��
2020/07/23,07:20,0.654,0.936,0.590,1.123,0.811,0.392,0.668,0.627,��쐼,1.5,��
2020/07/23,07:30,0.654,0.935,0.590,1.123,0.811,0.390,0.666,0.627,�쐼,1.4,��
2020/07/23,07:40,0.654,0.934,0.587,1.122,0.809,0.392,0.666,0.627,-,CALM,��
2020/07/23,07:50,0.656,0.934,0.588,1.123,0.809,0.391,0.667,0.627,�쐼,1.2,��
2020/07/23,08:00,0.657,0.932,0.591,1.124,0.809,0.391,0.666,0.627,���k��,1.7,��
2020/07/23,08:10,0.655,0.934,0.589,1.121,0.807,0.393,0.667,0.627,�k��,2.5,�L
2020/07/23,08:20,0.656,0.935,0.591,1.122,0.809,0.391,0.667,0.626,�k��,3.2,�L
2020/07/23,08:30,0.657,0.933,0.592,1.127,0.810,0.394,0.667,0.628,�k��,3.7,�L
2020/07/23,08:40,0.658,0.934,0.592,1.124,0.813,0.393,0.667,0.628,�k��,3.8,�L
2020/07/23,08:50,0.658,0.931,0.592,1.125,0.810,0.393,0.667,0.628,�k��,4.8,�L
2020/07/23,09:00,0.657,0.932,0.592,1.123,0.812,0.394,0.667,0.628,�k��,4.1,�L
2020/07/23,09:10,0.659,0.931,0.592,1.126,0.810,0.394,0.668,0.627,�k��,3.8,�L
2020/07/23,09:20,0.658,0.931,0.592,1.128,0.811,0.394,0.669,0.628,�k��,2.9,�L
2020/07/23,09:30,0.658,0.930,0.593,1.124,0.810,0.395,0.668,0.628,�k��,0.9,�L
2020/07/23,09:40,0.660,0.930,0.594,1.128,0.811,0.394,0.668,0.627,�k,0.9,�L
2020/07/23,09:50,0.660,0.933,0.593,1.122,0.810,0.393,0.669,0.629,�k�k��,1.7,�L
2020/07/23,10:00,0.658,0.929,0.591,1.126,0.810,0.394,0.668,0.627,�k,0.9,��
2020/07/23,10:10,0.656,0.930,0.591,1.125,0.810,0.393,0.666,0.626,���k��,0.9,��
2020/07/23,10:20,0.654,0.929,0.587,1.123,0.809,0.391,0.667,0.627,-,CALM,��
2020/07/23,10:30,0.656,0.926,0.587,1.125,0.809,0.392,0.667,0.624,�쓌,1.5,�L
2020/07/23,10:40,0.655,0.926,0.585,1.123,0.807,0.393,0.668,0.625,�쓌,2.0,�L
2020/07/23,10:50,0.654,0.930,0.584,1.120,0.808,0.394,0.665,0.628,�쓌,2.0,�L
2020/07/23,11:00,0.656,0.927,0.586,1.120,0.807,0.393,0.666,0.625,�쓌,1.9,�L
2020/07/23,11:10,0.656,0.927,0.585,1.121,0.810,0.393,0.667,0.625,��,0.9,�L
2020/07/23,11:20,0.658,0.927,0.586,1.122,0.809,0.392,0.666,0.624,���쓌,0.9,�L
2020/07/23,11:30,0.656,0.928,0.585,1.123,0.808,0.393,0.669,0.624,���쓌,0.8,�L
2020/07/23,11:40,0.656,0.932,0.586,1.123,0.808,0.394,0.667,0.625,���k��,1.2,�L
2020/07/23,11:50,0.656,0.930,0.587,1.123,0.807,0.391,0.665,0.625,�k��,1.4,�L
2020/07/23,12:00,0.656,0.932,0.589,1.125,0.809,0.393,0.665,0.625,�k��,1.1,�L
2020/07/23,12:10,0.658,0.931,0.587,1.124,0.809,0.393,0.668,0.626,���k��,1.2,�L
2020/07/23,12:20,0.655,0.932,0.589,1.125,0.810,0.394,0.666,0.627,��,1.4,�L
2020/07/23,12:30,0.656,0.935,0.589,1.125,0.809,0.395,0.666,0.626,��,1.7,��
2020/07/23,12:40,0.658,0.933,0.591,1.124,0.810,0.392,0.667,0.627,��,2.3,��
2020/07/23,12:50,0.655,0.930,0.590,1.122,0.808,0.394,0.666,0.626,�쓌,1.5,��
2020/07/23,13:00,0.654,0.931,0.591,1.121,0.809,0.393,0.666,0.625,�쓌,1.5,��
2020/07/23,13:10,0.655,0.930,0.591,1.122,0.808,0.393,0.668,0.624,�쓌,0.8,��
2020/07/23,13:20,0.656,0.926,0.588,1.121,0.809,0.392,0.667,0.625,���쓌,1.2,��
2020/07/23,13:30,0.656,0.929,0.586,1.120,0.807,0.392,0.666,0.628,���k��,1.1,��
2020/07/23,13:40,0.655,0.930,0.587,1.120,0.807,0.394,0.667,0.624,��,0.9,��
2020/07/23,13:50,0.655,0.931,0.586,1.121,0.807,0.392,0.666,0.626,��,1.7,��
2020/07/23,14:00,0.656,0.926,0.586,1.121,0.807,0.392,0.666,0.626,���쓌,1.4,��
2020/07/23,14:10,0.654,0.931,0.588,1.119,0.807,0.392,0.667,0.626,�쓌,1.5,��
2020/07/23,14:20,0.654,0.932,0.588,1.121,0.809,0.391,0.665,0.624,�쓌,1.4,�L
2020/07/23,14:30,0.658,0.930,0.586,1.119,0.806,0.393,0.667,0.626,�쓌,1.9,��
2020/07/23,14:40,0.655,0.929,0.588,1.122,0.810,0.392,0.667,0.625,�쓌,2.3,��
2020/07/23,14:50,0.654,0.931,0.587,1.122,0.810,0.393,0.668,0.626,�쓌,2.3,��
2020/07/23,15:00,0.655,0.931,0.588,1.123,0.811,0.392,0.667,0.627,�쓌,2.0,��
2020/07/23,15:10,0.656,0.930,0.587,1.121,0.810,0.394,0.668,0.626,���쓌,2.3,��
2020/07/23,15:20,0.655,0.932,0.587,1.122,0.809,0.393,0.667,0.626,�쓌,1.9,��
2020/07/23,15:30,0.652,0.932,0.588,1.124,0.810,0.394,0.667,0.626,�쓌,2.8,��
2020/07/23,15:40,0.652,0.934,0.589,1.124,0.811,0.393,0.667,0.625,�쓌,3.4,��
2020/07/23,15:50,0.654,0.936,0.588,1.125,0.810,0.394,0.669,0.627,�쓌,3.7,��
2020/07/23,16:00,0.655,0.934,0.589,1.124,0.808,0.393,0.667,0.626,�쓌,4.3,��
2020/07/23,16:10,0.653,0.936,0.590,1.125,0.809,0.392,0.668,0.628,�쓌,3.5,��
2020/07/23,16:20,0.654,0.935,0.589,1.125,0.809,0.391,0.668,0.626,�쓌,3.3,��
2020/07/23,16:30,0.656,0.935,0.586,1.125,0.811,0.392,0.667,0.626,��쓌,3.7,��
2020/07/23,16:40,0.654,0.936,0.588,1.122,0.812,0.394,0.667,0.627,��쓌,4.7,��
2020/07/23,16:50,0.653,0.936,0.589,1.124,0.810,0.393,0.667,0.626,��쓌,4.2,��
2020/07/23,17:00,0.653,0.939,0.588,1.122,0.809,0.394,0.667,0.626,��쓌,3.5,��
2020/07/23,17:10,0.657,0.938,0.590,1.124,0.810,0.394,0.667,0.627,��쓌,3.4,��
2020/07/23,17:20,0.655,0.936,0.590,1.128,0.812,0.394,0.667,0.627,��,1.5,��
2020/07/23,17:30,0.657,0.938,0.588,1.125,0.811,0.396,0.667,0.626,��,4.2,��
2020/07/23,17:40,0.656,0.937,0.589,1.127,0.811,0.393,0.668,0.626,��,4.4,��
2020/07/23,17:50,0.657,0.938,0.590,1.127,0.810,0.392,0.670,0.628,��,4.4,��
2020/07/23,18:00,0.656,0.936,0.591,1.128,0.812,0.394,0.669,0.627,��,4.1,��
2020/07/23,18:10,0.656,0.938,0.591,1.127,0.811,0.394,0.668,0.626,��,3.8,��
2020/07/23,18:20,0.657,0.936,0.590,1.125,0.812,0.394,0.670,0.629,��,3.8,��
2020/07/23,18:30,0.657,0.940,0.589,1.127,0.812,0.394,0.670,0.628,��,3.1,��
2020/07/23,18:40,0.657,0.936,0.592,1.128,0.812,0.394,0.669,0.629,��,2.2,��
2020/07/23,18:50,0.656,0.940,0.588,1.129,0.812,0.394,0.670,0.629,�k��,1.5,��
2020/07/23,19:00,0.657,0.939,0.589,1.127,0.813,0.394,0.670,0.630,�k�k��,1.7,��
2020/07/23,19:10,0.657,0.939,0.589,1.129,0.812,0.393,0.671,0.629,�k��,1.9,��
2020/07/23,19:20,0.655,0.939,0.590,1.129,0.813,0.395,0.671,0.629,�k��,2.3,��
2020/07/23,19:30,0.657,0.939,0.590,1.132,0.814,0.395,0.670,0.629,�k��,2.6,��
2020/07/23,19:40,0.657,0.939,0.590,1.128,0.813,0.396,0.670,0.629,�k�k��,2.6,��
2020/07/23,19:50,0.657,0.940,0.591,1.131,0.812,0.394,0.669,0.630,�k,1.9,��
2020/07/23,20:00,0.656,0.939,0.592,1.130,0.812,0.394,0.670,0.629,�k�k��,2.2,��
2020/07/23,20:10,0.655,0.941,0.589,1.128,0.814,0.393,0.668,0.629,�k�k��,1.5,��
2020/07/23,20:20,0.657,0.938,0.590,1.129,0.813,0.393,0.671,0.629,�k,1.5,��
2020/07/23,20:30,0.657,0.942,0.593,1.129,0.814,0.394,0.669,0.628,�k�k��,0.9,��
2020/07/23,20:40,0.655,0.939,0.591,1.128,0.813,0.394,0.670,0.630,�k�k��,0.6,��
2020/07/23,20:50,0.657,0.941,0.590,1.129,0.812,0.394,0.670,0.630,�k�k��,0.6,��
2020/07/23,21:00,0.656,0.939,0.589,1.127,0.814,0.392,0.668,0.629,�k�k��,1.7,��
2020/07/23,21:10,0.657,0.939,0.590,1.130,0.814,0.393,0.668,0.630,�k,2.3,��
2020/07/23,21:20,0.657,0.939,0.590,1.128,0.813,0.393,0.669,0.628,�k�k��,2.6,��
2020/07/23,21:30,0.655,0.939,0.592,1.128,0.814,0.393,0.670,0.628,�k�k��,3.3,��
2020/07/23,21:40,0.656,0.939,0.592,1.130,0.813,0.394,0.669,0.629,�k,4.3,��
2020/07/23,21:50,0.654,0.938,0.590,1.127,0.811,0.393,0.669,0.628,�k,3.7,��
2020/07/23,22:00,0.655,0.938,0.589,1.129,0.812,0.394,0.669,0.630,�k,3.5,��
2020/07/23,22:10,0.656,0.939,0.590,1.128,0.812,0.394,0.670,0.628,�k�k��,2.8,��
2020/07/23,22:20,0.654,0.937,0.589,1.128,0.814,0.392,0.669,0.628,�k�k��,3.4,��
2020/07/23,22:30,0.654,0.939,0.590,1.127,0.811,0.393,0.670,0.629,�k�k��,3.4,��
2020/07/23,22:40,0.655,0.938,0.589,1.129,0.812,0.393,0.669,0.630,�k�k��,4.0,��
2020/07/23,22:50,0.653,0.937,0.589,1.127,0.812,0.392,0.668,0.629,�k�k��,5.1,��
2020/07/23,23:00,0.653,0.938,0.591,1.128,0.811,0.392,0.668,0.629,�k�k��,5.0,��
2020/07/23,23:10,0.653,0.936,0.591,1.128,0.810,0.392,0.667,0.629,�k,5.0,��
2020/07/23,23:20,0.653,0.937,0.589,1.129,0.810,0.392,0.668,0.629,�k�k��,4.7,��
2020/07/23,23:30,0.653,0.936,0.589,1.128,0.809,0.391,0.667,0.627,�k�k��,4.6,��
2020/07/23,23:40,0.653,0.936,0.589,1.127,0.810,0.393,0.669,0.628,�k,4.8,��
2020/07/23,23:50,0.652,0.935,0.587,1.128,0.811,0.392,0.667,0.627,�k,5.0,��
